アトラス彗星

C/2020 P3 ( ATLAS )

English version
Home page
Updated on January 18, 2021

---------------------------------------------------------------------

・ プロフィール

発見日 2020年8月9日
発見光度 19.0等
発見者 Asteroid Terrestrial-Impact Last Alert System (ATLAS) search program

・ 写真集

・ 軌道要素

Epoch 2021 Apr. 16.0 TT = JDT 2459320.5
T 2021 Apr. 20.90479 TT                                 Rudenko
q   6.8124626            (2000.0)            P               Q
z  +0.0001224      Peri.   82.24875     -0.02865004     -0.95528517
 +/-0.0000114      Node    19.49123     +0.09748932     -0.29568243
e   0.9991659      Incl.   61.88618     +0.99482411     +0.00146450
From 224 observations 2020 Aug. 9-Nov. 13, mean residual 0".5.

・ 光度変化

        m1 = 5.5 + 5 logΔ + 10.0 log r

---------------------------------------------------------------------

軌道要素はM.P.E.C. 2020-W26に掲載されたものです。
光度グラフはComet for Windowsで作成したものです。

---------------------------------------------------------------------

Copyright(C) Seiichi Yoshida (comet@aerith.net). All rights reserved.